| time (UTC) | temp C | wind direction | speed KPH | gust KPH | rain 1hr cm | rain 24hr cm | rain mn cm | humidity % | barometer mb |
| 20260505000405 | 20 | 25 | 0.0 | 3.2 | 0.13 | 1.50 | 1.37 | 94 | 1014.4 |
| 20260504235404 | 20 | 352 | 0.0 | 3.2 | 0.13 | 1.47 | 1.35 | 94 | 1014.3 |
| 20260504234904 | 20 | 356 | 1.6 | 4.8 | 0.15 | 1.47 | 1.35 | 94 | 1014.1 |
| 20260504234404 | 20 | 37 | 1.6 | 8.0 | 0.10 | 1.40 | 1.27 | 94 | 1014.0 |
| 20260504233903 | 20 | 60 | 3.2 | 9.7 | 0.13 | 1.40 | 1.27 | 94 | 1013.9 |
| 20260504233404 | 21 | 315 | 0.0 | 1.6 | 0.13 | 1.40 | 1.27 | 94 | 1013.8 |
| 20260504232904 | 21 | 16 | 0.0 | 3.2 | 0.15 | 1.40 | 1.27 | 95 | 1013.8 |
| 20260504232404 | 21 | 22 | 1.6 | 3.2 | 0.18 | 1.40 | 1.27 | 94 | 1013.8 |
| 20260504231404 | 20 | 18 | 0.0 | 4.8 | 0.25 | 1.40 | 1.27 | 94 | 1013.8 |
| 20260504230904 | 21 | 60 | 1.6 | 9.7 | 0.28 | 1.37 | 1.24 | 95 | 1013.9 |
| 20260504230403 | 20 | 39 | 1.6 | 8.0 | 0.36 | 1.37 | 1.24 | 94 | 1013.8 |
| 20260504225904 | 20 | 50 | 3.2 | 8.0 | 0.46 | 1.37 | 1.24 | 94 | 1013.8 |
| 20260504225405 | 21 | 0 | 0.0 | 1.6 | 0.56 | 1.35 | 1.22 | 94 | 1013.9 |
| 20260504224404 | 21 | 333 | 1.6 | 4.8 | 0.86 | 1.30 | 1.17 | 94 | 1013.8 |
| 20260504223904 | 21 | 44 | 0.0 | 4.8 | 0.91 | 1.27 | 1.14 | 94 | 1013.8 |
| 20260504223404 | 20 | 343 | 1.6 | 4.8 | 0.91 | 1.27 | 1.14 | 94 | 1013.6 |
| 20260504222903 | 20 | 37 | 1.6 | 4.8 | 0.89 | 1.24 | 1.12 | 94 | 1013.7 |
| 20260504221904 | 21 | 320 | 0.0 | 1.6 | 0.84 | 1.19 | 1.07 | 93 | 1013.6 |
| 20260504221404 | 21 | 335 | 1.6 | 3.2 | 0.79 | 1.14 | 1.02 | 93 | 1013.6 |
| 20260504220904 | 21 | 335 | 0.0 | 1.6 | 0.74 | 1.09 | 0.97 | 93 | 1013.5 |
| 20260504220404 | 21 | 33 | 1.6 | 4.8 | 0.66 | 1.02 | 0.89 | 92 | 1013.5 |
| 20260504215904 | 21 | 343 | 0.0 | 1.6 | 0.56 | 0.91 | 0.79 | 92 | 1013.6 |
| 20260504215404 | 21 | 35 | 0.0 | 4.8 | 0.43 | 0.79 | 0.66 | 92 | 1013.7 |
| 20260504214904 | 21 | 358 | 0.0 | 1.6 | 0.28 | 0.64 | 0.51 | 91 | 1013.7 |
| 20260504214404 | 21 | 313 | 0.0 | 1.6 | 0.08 | 0.43 | 0.30 | 90 | 1013.7 |
| 20260504213904 | 21 | 317 | 0.0 | 1.6 | 0.00 | 0.36 | 0.23 | 90 | 1013.6 |
| 20260504213404 | 21 | 318 | 0.0 | 1.6 | 0.03 | 0.36 | 0.23 | 90 | 1013.4 |
| 20260504212905 | 21 | 328 | 0.0 | 1.6 | 0.03 | 0.36 | 0.23 | 90 | 1013.2 |
| 20260504212404 | 21 | 338 | 0.0 | 3.2 | 0.03 | 0.36 | 0.23 | 90 | 1013.1 |
| 20260504211904 | 21 | 337 | 0.0 | 4.8 | 0.03 | 0.36 | 0.23 | 89 | 1013.2 |
| 20260504205904 | 22 | 304 | 0.0 | 0.0 | 0.03 | 0.36 | 0.23 | 89 | 1013.2 |
| 20260504205404 | 22 | 305 | 0.0 | 1.6 | 0.03 | 0.36 | 0.23 | 89 | 1013.3 |
| 20260504204903 | 22 | 332 | 0.0 | 1.6 | 0.03 | 0.36 | 0.23 | 89 | 1013.2 |
| 20260504204404 | 22 | 313 | 0.0 | 0.0 | 0.03 | 0.36 | 0.23 | 89 | 1013.3 |
| 20260504203904 | 22 | 314 | 0.0 | 1.6 | 0.03 | 0.36 | 0.23 | 89 | 1013.2 |
| 20260504203404 | 22 | 314 | 0.0 | 1.6 | 0.03 | 0.36 | 0.23 | 89 | 1013.2 |
| 20260504202904 | 22 | 314 | 0.0 | 1.6 | 0.03 | 0.36 | 0.23 | 89 | 1013.1 |
| 20260504202404 | 22 | 311 | 0.0 | 1.6 | 0.00 | 0.33 | 0.20 | 89 | 1013.0 |
| 20260504201904 | 22 | 312 | 0.0 | 3.2 | 0.00 | 0.33 | 0.20 | 89 | 1012.9 |
| 20260504201404 | 22 | 34 | 1.6 | 4.8 | 0.00 | 0.33 | 0.20 | 89 | 1013.0 |
| 20260504195904 | 22 | 301 | 0.0 | 1.6 | 0.00 | 0.33 | 0.20 | 90 | 1013.0 |
| 20260504195404 | 22 | 358 | 0.0 | 1.6 | 0.03 | 0.33 | 0.20 | 90 | 1013.0 |
| 20260504194904 | 22 | 300 | 0.0 | 3.2 | 0.03 | 0.33 | 0.20 | 91 | 1013.1 |
| 20260504194404 | 22 | 255 | 1.6 | 4.8 | 0.03 | 0.33 | 0.20 | 91 | 1013.1 |
| 20260504193404 | 22 | 319 | 0.0 | 3.2 | 0.03 | 0.33 | 0.20 | 91 | 1012.9 |
| 20260504192404 | 22 | 310 | 0.0 | 3.2 | 0.03 | 0.33 | 0.20 | 91 | 1012.9 |
| 20260504191904 | 22 | 326 | 0.0 | 1.6 | 0.03 | 0.33 | 0.20 | 91 | 1012.9 |
| 20260504191404 | 22 | 348 | 0.0 | 1.6 | 0.03 | 0.33 | 0.20 | 91 | 1012.9 |
| 20260504190904 | 22 | 343 | 0.0 | 1.6 | 0.05 | 0.33 | 0.20 | 91 | 1012.9 |
| 20260504190404 | 22 | 311 | 0.0 | 1.6 | 0.05 | 0.33 | 0.20 | 91 | 1013.0 |
| 20260504185904 | 22 | 4 | 0.0 | 1.6 | 0.10 | 0.33 | 0.20 | 91 | 1013.0 |
| 20260504185404 | 22 | 60 | 1.6 | 8.0 | 0.10 | 0.30 | 0.18 | 91 | 1013.1 |
| 20260504184905 | 22 | 15 | 1.6 | 3.2 | 0.18 | 0.30 | 0.18 | 91 | 1013.2 |
| 20260504184405 | 22 | 2 | 0.0 | 8.0 | 0.18 | 0.30 | 0.18 | 91 | 1013.1 |
| 20260504183904 | 22 | 346 | 0.0 | 0.0 | 0.18 | 0.30 | 0.18 | 91 | 1013.2 |
| 20260504183404 | 22 | 39 | 1.6 | 4.8 | 0.18 | 0.30 | 0.18 | 92 | 1013.3 |
| 20260504182904 | 22 | 47 | 1.6 | 4.8 | 0.18 | 0.30 | 0.18 | 91 | 1013.2 |
| 20260504182404 | 22 | 355 | 0.0 | 4.8 | 0.18 | 0.30 | 0.18 | 91 | 1013.3 |
| 20260504181904 | 22 | 316 | 0.0 | 4.8 | 0.18 | 0.30 | 0.18 | 92 | 1013.3 |
| 20260504181404 | 22 | 6 | 3.2 | 8.0 | 0.18 | 0.30 | 0.18 | 91 | 1013.5 |
| 20260504180904 | 22 | 5 | 0.0 | 4.8 | 0.15 | 0.28 | 0.15 | 91 | 1013.8 |
| 20260504180404 | 22 | 23 | 0.0 | 4.8 | 0.15 | 0.28 | 0.15 | 90 | 1013.9 |
| 20260504175904 | 23 | 314 | 0.0 | 0.0 | 0.10 | 0.23 | 0.10 | 90 | 1013.9 |
| 20260504175404 | 23 | 10 | 0.0 | 0.0 | 0.08 | 0.20 | 0.08 | 89 | 1014.0 |
| 20260504174404 | 23 | 3 | 1.6 | 4.8 | 0.00 | 0.13 | 0.00 | 88 | 1014.0 |
| 20260504173905 | 23 | 349 | 1.6 | 4.8 | 0.00 | 0.13 | 0.00 | 88 | 1014.1 |
| 20260504173404 | 23 | 3 | 1.6 | 3.2 | 0.00 | 0.13 | 0.00 | 87 | 1014.0 |
| 20260504172904 | 23 | 43 | 3.2 | 8.0 | 0.00 | 0.13 | 0.00 | 87 | 1014.1 |
| 20260504172404 | 23 | 5 | 1.6 | 9.7 | 0.00 | 0.13 | 0.00 | 86 | 1014.1 |
| 20260504171903 | 23 | 325 | 0.0 | 1.6 | 0.00 | 0.13 | 0.00 | 86 | 1014.2 |
| 20260504171403 | 23 | 62 | 1.6 | 4.8 | 0.00 | 0.13 | 0.00 | 86 | 1014.2 |
| 20260504170904 | 23 | 48 | 1.6 | 3.2 | 0.00 | 0.13 | 0.00 | 86 | 1014.3 |
| 20260504160404 | 22 | 329 | 0.0 | 3.2 | 0.00 | 0.13 | 0.00 | 88 | 1014.4 |
| 20260504150904 | 22 | 328 | 0.0 | 4.8 | 0.03 | 0.23 | 0.13 | 92 | 1015.2 |
| 20260504150404 | 22 | 347 | 0.0 | 1.6 | 0.03 | 0.25 | 0.13 | 92 | 1015.2 |
| 20260504140904 | 23 | 28 | 0.0 | 4.8 | 0.00 | 0.43 | 0.10 | 92 | 1014.8 |
| 20260504140404 | 23 | 10 | 1.6 | 3.2 | 0.00 | 0.48 | 0.10 | 92 | 1014.7 |
| 20260504130404 | 23 | 317 | 0.0 | 0.0 | 0.00 | 0.94 | 0.10 | 92 | 1014.6 |
| 20260504081904 | 25 | 35 | 6.4 | 11.3 | 0.00 | 2.06 | 0.00 | 80 | 1013.5 |
| 20260504081404 | 25 | 23 | 3.2 | 11.3 | 0.00 | 2.06 | 0.00 | 80 | 1013.6 |
| 20260504080904 | 25 | 17 | 1.6 | 4.8 | 0.00 | 2.06 | 0.00 | 80 | 1013.7 |
| 20260504080404 | 25 | 8 | 4.8 | 12.9 | 0.00 | 2.08 | 0.00 | 79 | 1013.7 |
| 20260504070404 | 25 | 44 | 6.4 | 12.9 | 0.00 | 3.84 | 0.00 | 77 | 1014.7 |
| 20260504050404 | 27 | 38 | 3.2 | 4.8 | 0.00 | 6.32 | 0.00 | 69 | 1015.1 |
| 20260504045904 | 27 | 329 | 1.6 | 4.8 | 0.00 | 6.32 | 0.00 | 69 | 1015.1 |
| 20260504045404 | 27 | 17 | 1.6 | 4.8 | 0.00 | 6.32 | 0.00 | 70 | 1015.1 |
| 20260504044904 | 27 | 58 | 1.6 | 8.0 | 0.00 | 6.32 | 0.00 | 70 | 1015.1 |
| 20260504044404 | 26 | 37 | 1.6 | 8.0 | 0.00 | 6.32 | 0.00 | 70 | 1015.1 |
| 20260504043904 | 26 | 296 | 1.6 | 8.0 | 0.00 | 6.32 | 0.00 | 71 | 1015.1 |
| 20260504042903 | 26 | 11 | 1.6 | 4.8 | 0.00 | 6.32 | 0.00 | 71 | 1015.1 |
| 20260504042404 | 26 | 26 | 0.0 | 4.8 | 0.00 | 6.32 | 0.00 | 72 | 1015.2 |
| 20260504041904 | 26 | 55 | 4.8 | 12.9 | 0.00 | 6.32 | 0.00 | 71 | 1015.2 |
| 20260504041404 | 26 | 330 | 1.6 | 4.8 | 0.00 | 6.32 | 0.00 | 73 | 1015.2 |
| 20260504040904 | 26 | 24 | 3.2 | 8.0 | 0.00 | 6.32 | 0.00 | 73 | 1015.3 |
| 20260504040404 | 26 | 326 | 1.6 | 4.8 | 0.00 | 6.32 | 0.00 | 74 | 1015.5 |
| 20260504035904 | 26 | 48 | 1.6 | 4.8 | 0.00 | 6.32 | 0.00 | 74 | 1015.5 |
| 20260504035404 | 26 | 23 | 1.6 | 8.0 | 0.00 | 6.32 | 0.00 | 74 | 1015.5 |
| 20260504034404 | 26 | 61 | 4.8 | 12.9 | 0.00 | 6.32 | 0.00 | 74 | 1015.6 |
| 20260504033904 | 26 | 328 | 1.6 | 4.8 | 0.00 | 6.32 | 0.00 | 74 | 1015.5 |
| 20260504032903 | 26 | 327 | 1.6 | 4.8 | 0.00 | 6.32 | 0.00 | 73 | 1015.5 |
| 20260504032404 | 26 | 47 | 4.8 | 11.3 | 0.00 | 6.32 | 0.00 | 72 | 1015.4 |
| 20260504031905 | 26 | 5 | 4.8 | 12.9 | 0.00 | 6.32 | 0.00 | 72 | 1015.4 |
| 20260504030904 | 26 | 54 | 3.2 | 8.0 | 0.00 | 6.32 | 0.00 | 72 | 1015.5 |
| 20260504025904 | 26 | 343 | 0.0 | 1.6 | 0.00 | 6.32 | 0.00 | 72 | 1015.8 |
| 20260504025404 | 25 | 53 | 0.0 | 11.3 | 0.00 | 6.32 | 0.00 | 73 | 1015.9 |
| 20260504024904 | 25 | 54 | 6.4 | 16.1 | 0.00 | 6.32 | 0.00 | 73 | 1015.8 |
| 20260504023904 | 26 | 34 | 1.6 | 4.8 | 0.00 | 6.32 | 0.00 | 74 | 1015.7 |
| 20260504022904 | 25 | 59 | 4.8 | 9.7 | 0.00 | 6.32 | 0.00 | 74 | 1015.7 |
| 20260504022404 | 25 | 64 | 4.8 | 11.3 | 0.00 | 6.32 | 0.00 | 73 | 1015.7 |
| 20260504021904 | 25 | 68 | 3.2 | 14.5 | 0.00 | 6.32 | 0.00 | 73 | 1015.6 |
| 20260504021403 | 26 | 31 | 3.2 | 9.7 | 0.00 | 6.32 | 0.00 | 73 | 1015.4 |
| 20260504020404 | 26 | 42 | 4.8 | 8.0 | 0.00 | 6.32 | 0.00 | 71 | 1015.5 |
| 20260504015904 | 25 | 328 | 0.0 | 4.8 | 0.00 | 6.32 | 0.00 | 71 | 1015.6 |
| 20260504015403 | 25 | 335 | 0.0 | 4.8 | 0.00 | 6.32 | 0.00 | 71 | 1015.5 |
| 20260504014904 | 25 | 331 | 1.6 | 3.2 | 0.00 | 6.32 | 0.00 | 71 | 1015.4 |
| 20260504013903 | 25 | 7 | 1.6 | 4.8 | 0.00 | 6.32 | 0.00 | 71 | 1015.6 |
| 20260504012404 | 25 | 314 | 1.6 | 4.8 | 0.00 | 6.32 | 0.00 | 71 | 1015.3 |
| 20260504011904 | 25 | 38 | 3.2 | 4.8 | 0.00 | 6.32 | 0.00 | 71 | 1015.2 |
| 20260504011404 | 25 | 306 | 0.0 | 3.2 | 0.00 | 6.32 | 0.00 | 71 | 1015.2 |
| 20260504010904 | 25 | 307 | 1.6 | 8.0 | 0.00 | 6.32 | 0.00 | 72 | 1015.1 |
| 20260504010404 | 25 | 340 | 0.0 | 4.8 | 0.00 | 6.32 | 0.00 | 73 | 1015.0 |
| 20260504005904 | 24 | 64 | 3.2 | 4.8 | 0.00 | 6.32 | 0.00 | 73 | 1015.0 |
| 20260504005404 | 24 | 54 | 1.6 | 4.8 | 0.00 | 6.32 | 0.00 | 73 | 1015.0 |
| 20260504004904 | 24 | 40 | 1.6 | 4.8 | 0.00 | 6.32 | 0.00 | 74 | 1015.0 |
| 20260504004404 | 24 | 323 | 1.6 | 3.2 | 0.00 | 6.32 | 0.00 | 75 | 1014.9 |
| 20260504003904 | 24 | 349 | 1.6 | 4.8 | 0.00 | 6.32 | 0.00 | 75 | 1015.1 |
| 20260504003404 | 24 | 60 | 3.2 | 4.8 | 0.00 | 6.32 | 0.00 | 75 | 1015.1 |
| 20260504002404 | 23 | 49 | 0.0 | 3.2 | 0.00 | 6.32 | 0.00 | 76 | 1015.1 |
| 20260504001904 | 23 | 55 | 3.2 | 4.8 | 0.00 | 6.32 | 0.00 | 77 | 1015.0 |
| 20260504001405 | 23 | 51 | 3.2 | 8.0 | 0.00 | 6.32 | 0.00 | 77 | 1014.9 |
| 20260504000904 | 23 | 19 | 0.0 | 8.0 | 0.00 | 6.32 | 0.00 | 78 | 1014.8 |